Cloud_Cover
5 5 5 2 1 5 30 96 85 96 95 89 100 100 100 100 100 100 100 100 100 100 100 100 100 100 100
7 5 4 4 5 44 100 100 100 95 5 100 100 100 100 100 100 100 100 100 100 100 100 100 100 100 100
62 5 8 51 72 97 68 86 3 2 5 11 100 100 100 100 100 100 100 100 100 100 100 100 100 100 100
99 98 91 98 79 21 4 5 5 5 18 67 97 83 98 100 100 100 100 100 100 100 100 100 100 100 100
99 100 82 11 5 5 29 62 84 90 89 26 11 74 62 11 14 41 86 100 100 100 100 100 100 100 100
93 12 5 5 6 99 100 100 97 94 100 86 48 59 5 5 8 100 100 100 100 100 100 100 100 100 100
5 14 96 75 100 100 100 100 100 99 100 100 48 76 57 59 5 82 100 100 100 100 100 100 100 100 100
99 86 100 100 100 100 100 100 100 100 100 100 74 100 100 96 98 81 85 100 100 100 100 100 100 100 100
97 84 46 66 100 100 97 100 100 100 100 100 98 100 100 100 100 95 78 100 100 100 100 100 100 100 100
57 88 88 100 100 100 100 100 100 100 92 100 95 96 100 62 98 68 5 45 100 100 100 100 100 100 100
88 99 98 82 89 100 100 100 100 100 84 100 100 100 100 87 92 98 95 88 93 100 100 100 100 100 100
100 100 100 100 100 100 100 100 100 100 90 100 100 100 100 99 96 99 100 100 94 100 100 100 100 100 100
100 100 100 100 100 100 99 100 100 100 94 93 100 100 100 100 99 88 100 100 100 100 100 100 100 100 100
100 100 100 100 100 100 100 100 100 100 100 100 100 100 100 100 100 100 100 100 100 100 100 100 100 100 97
100 100 100 100 100 98 100 100 100 100 80 95 99 100 99 100 100 100 100 100 100 100 100 100 100 100 100
100 100 100 100 100 99 100 100 100 96 100 82 100 100 100 100 100 100 100 100 100 100 100 100 100 100 100
100 100 100 100 100 100 100 100 99 100 99 93 100 100 100 88 100 100 100 100 100 100 100 100 100 100 100